| time (UTC) | temp C | wind direction | speed KPH | gust KPH | rain 1hr cm | rain 24hr cm | rain mn cm | humidity % | barometer mb |
| 20260505200538 | 23 | 0 | 1.6 | 14.5 | 0.00 | 0.00 | 0.00 | 39 | 1012.5 |
| 20260505200100 | 23 | 222 | 0.0 | 14.5 | 0.00 | 0.00 | 0.00 | 40 | 1012.9 |
| 20260505195538 | 23 | 0 | 0.0 | 16.1 | 0.00 | 0.00 | 0.00 | 39 | 1012.8 |
| 20260505195038 | 23 | 288 | 1.6 | 16.1 | 0.00 | 0.00 | 0.00 | 38 | 1012.8 |
| 20260505194555 | 23 | 222 | 0.0 | 12.9 | 0.00 | 0.00 | 0.00 | 39 | 1012.8 |
| 20260505194038 | 24 | 182 | 0.0 | 6.4 | 0.00 | 0.00 | 0.00 | 38 | 1012.7 |
| 20260505193538 | 24 | 0 | 0.0 | 8.0 | 0.00 | 0.00 | 0.00 | 39 | 1012.7 |
| 20260505193046 | 25 | 0 | 1.6 | 12.9 | 0.00 | 0.00 | 0.00 | 37 | 1012.8 |
| 20260505192539 | 25 | 173 | 0.0 | 12.9 | 0.00 | 0.00 | 0.00 | 36 | 1013.1 |
| 20260505192038 | 25 | 241 | 0.0 | 11.3 | 0.00 | 0.00 | 0.00 | 39 | 1013.3 |
| 20260505191547 | 25 | 213 | 0.0 | 11.3 | 0.00 | 0.00 | 0.00 | 38 | 1013.3 |
| 20260505191038 | 25 | 0 | 1.6 | 11.3 | 0.00 | 0.00 | 0.00 | 39 | 1013.4 |
| 20260505190538 | 25 | 296 | 1.6 | 11.3 | 0.00 | 0.00 | 0.00 | 39 | 1013.3 |
| 20260505190051 | 25 | 215 | 0.0 | 11.3 | 0.00 | 0.00 | 0.00 | 41 | 1013.4 |
| 20260505185538 | 24 | 159 | 0.0 | 14.5 | 0.00 | 0.00 | 0.00 | 42 | 1013.6 |
| 20260505185038 | 24 | 0 | 3.2 | 14.5 | 0.00 | 0.00 | 0.00 | 42 | 1013.7 |
| 20260505184549 | 24 | 254 | 1.6 | 12.9 | 0.00 | 0.00 | 0.00 | 41 | 1013.8 |
| 20260505184039 | 24 | 0 | 0.0 | 19.3 | 0.00 | 0.00 | 0.00 | 42 | 1013.9 |
| 20260505183538 | 24 | 235 | 1.6 | 19.3 | 0.00 | 0.00 | 0.00 | 40 | 1014.0 |
| 20260505183050 | 25 | 236 | 3.2 | 17.7 | 0.00 | 0.00 | 0.00 | 40 | 1014.1 |
| 20260505182539 | 25 | 205 | 1.6 | 9.7 | 0.00 | 0.00 | 0.00 | 41 | 1014.1 |
| 20260505182039 | 25 | 280 | 1.6 | 9.7 | 0.00 | 0.00 | 0.00 | 41 | 1014.3 |
| 20260505181546 | 25 | 0 | 1.6 | 14.5 | 0.00 | 0.00 | 0.00 | 40 | 1014.2 |
| 20260505181040 | 25 | 184 | 1.6 | 14.5 | 0.00 | 0.00 | 0.00 | 40 | 1014.3 |
| 20260505180537 | 24 | 186 | 1.6 | 14.5 | 0.00 | 0.00 | 0.00 | 41 | 1014.5 |
| 20260505180045 | 24 | 236 | 3.2 | 24.1 | 0.00 | 0.00 | 0.00 | 40 | 1014.5 |
| 20260505175538 | 24 | 0 | 3.2 | 24.1 | 0.00 | 0.00 | 0.00 | 39 | 1014.6 |
| 20260505175038 | 24 | 226 | 1.6 | 17.7 | 0.00 | 0.00 | 0.00 | 39 | 1014.7 |
| 20260505174546 | 23 | 319 | 4.8 | 14.5 | 0.00 | 0.00 | 0.00 | 39 | 1014.9 |
| 20260505174038 | 23 | 273 | 1.6 | 19.3 | 0.00 | 0.00 | 0.00 | 40 | 1014.8 |
| 20260505173540 | 23 | 320 | 4.8 | 19.3 | 0.00 | 0.00 | 0.00 | 41 | 1015.0 |
| 20260505173046 | 23 | 213 | 3.2 | 17.7 | 0.00 | 0.00 | 0.00 | 41 | 1014.9 |
| 20260505172539 | 23 | 230 | 3.2 | 17.7 | 0.00 | 0.00 | 0.00 | 41 | 1015.0 |
| 20260505172038 | 23 | 169 | 4.8 | 17.7 | 0.00 | 0.00 | 0.00 | 40 | 1015.1 |
| 20260505171539 | 23 | 196 | 0.0 | 12.9 | 0.00 | 0.00 | 0.00 | 41 | 1015.2 |
| 20260505171041 | 23 | 123 | 3.2 | 12.9 | 0.00 | 0.00 | 0.00 | 40 | 1015.2 |
| 20260505170538 | 23 | 176 | 1.6 | 30.6 | 0.00 | 0.00 | 0.00 | 43 | 1015.4 |
| 20260505170046 | 23 | 162 | 3.2 | 30.6 | 0.00 | 0.00 | 0.00 | 39 | 1015.5 |
| 20260505165538 | 23 | 221 | 3.2 | 14.5 | 0.00 | 0.00 | 0.00 | 40 | 1015.4 |
| 20260505165041 | 23 | 164 | 3.2 | 9.7 | 0.00 | 0.00 | 0.00 | 40 | 1015.6 |
| 20260505164546 | 24 | 0 | 1.6 | 11.3 | 0.00 | 0.00 | 0.00 | 42 | 1015.6 |
| 20260505164039 | 23 | 238 | 1.6 | 11.3 | 0.00 | 0.00 | 0.00 | 44 | 1015.6 |
| 20260505163539 | 24 | 213 | 1.6 | 11.3 | 0.00 | 0.00 | 0.00 | 43 | 1015.7 |
| 20260505163043 | 24 | 167 | 0.0 | 11.3 | 0.00 | 0.00 | 0.00 | 42 | 1015.7 |
| 20260505162539 | 24 | 167 | 3.2 | 11.3 | 0.00 | 0.00 | 0.00 | 41 | 1015.7 |
| 20260505162039 | 24 | 217 | 1.6 | 11.3 | 0.00 | 0.00 | 0.00 | 43 | 1015.8 |
| 20260505161556 | 24 | 214 | 0.0 | 8.0 | 0.00 | 0.00 | 0.00 | 43 | 1015.7 |
| 20260505161039 | 24 | 137 | 0.0 | 12.9 | 0.00 | 0.00 | 0.00 | 43 | 1015.8 |
| 20260505160541 | 23 | 0 | 1.6 | 12.9 | 0.00 | 0.00 | 0.00 | 42 | 1015.7 |
| 20260505153049 | 22 | 0 | 1.6 | 11.3 | 0.00 | 0.00 | 0.00 | 47 | 1015.6 |
| 20260505152539 | 22 | 0 | 0.0 | 9.7 | 0.00 | 0.00 | 0.00 | 48 | 1015.7 |
| 20260505152038 | 22 | 0 | 1.6 | 12.9 | 0.00 | 0.00 | 0.00 | 47 | 1015.7 |
| 20260505151546 | 22 | 0 | 1.6 | 12.9 | 0.00 | 0.00 | 0.00 | 47 | 1015.6 |
| 20260505151040 | 22 | 0 | 1.6 | 12.9 | 0.00 | 0.00 | 0.00 | 48 | 1015.5 |
| 20260505150539 | 21 | 197 | 0.0 | 14.5 | 0.00 | 0.00 | 0.00 | 50 | 1015.5 |
| 20260505140538 | 21 | 0 | 0.0 | 8.0 | 0.00 | 0.00 | 0.00 | 47 | 1015.5 |
| 20260505124557 | 17 | 0 | 0.0 | 4.8 | 0.00 | 0.00 | 0.00 | 56 | 1015.3 |
| 20260505124038 | 17 | 0 | 0.0 | 1.6 | 0.00 | 0.00 | 0.00 | 59 | 1015.1 |
| 20260505123539 | 16 | 0 | 0.0 | 1.6 | 0.00 | 0.00 | 0.00 | 60 | 1015.3 |
| 20260505123045 | 15 | 0 | 0.0 | 0.0 | 0.00 | 0.00 | 0.00 | 63 | 1015.2 |
| 20260505122538 | 15 | 0 | 0.0 | 0.0 | 0.00 | 0.00 | 0.00 | 66 | 1015.0 |
| 20260505122039 | 15 | 0 | 0.0 | 0.0 | 0.00 | 0.00 | 0.00 | 68 | 1015.0 |
| 20260505121549 | 14 | 0 | 0.0 | 0.0 | 0.00 | 0.00 | 0.00 | 70 | 1014.9 |
| 20260505121039 | 13 | 0 | 0.0 | 0.0 | 0.00 | 0.00 | 0.00 | 71 | 1014.9 |
| 20260505120539 | 13 | 0 | 0.0 | 0.0 | 0.00 | 0.00 | 0.00 | 70 | 1014.9 |
| 20260505120052 | 13 | 0 | 0.0 | 0.0 | 0.00 | 0.00 | 0.00 | 69 | 1015.0 |
| 20260505115538 | 13 | 0 | 0.0 | 0.0 | 0.00 | 0.00 | 0.00 | 70 | 1015.1 |
| 20260505115039 | 13 | 0 | 0.0 | 3.2 | 0.00 | 0.00 | 0.00 | 71 | 1014.9 |
| 20260505114548 | 12 | 0 | 0.0 | 3.2 | 0.00 | 0.00 | 0.00 | 71 | 1014.9 |
| 20260505114040 | 12 | 0 | 0.0 | 3.2 | 0.00 | 0.00 | 0.00 | 71 | 1014.9 |
| 20260505113542 | 12 | 172 | 0.0 | 3.2 | 0.00 | 0.00 | 0.00 | 70 | 1014.9 |
| 20260505113045 | 12 | 0 | 0.0 | 0.0 | 0.00 | 0.00 | 0.00 | 69 | 1014.8 |
| 20260505112541 | 12 | 0 | 0.0 | 1.6 | 0.00 | 0.00 | 0.00 | 70 | 1014.7 |
| 20260505112039 | 11 | 0 | 0.0 | 1.6 | 0.00 | 0.00 | 0.00 | 70 | 1014.6 |
| 20260505111547 | 11 | 0 | 0.0 | 1.6 | 0.00 | 0.00 | 0.00 | 70 | 1014.6 |
| 20260505111039 | 11 | 0 | 0.0 | 1.6 | 0.00 | 0.00 | 0.00 | 71 | 1014.5 |
| 20260505110538 | 11 | 263 | 0.0 | 1.6 | 0.00 | 0.00 | 0.00 | 71 | 1014.4 |
| 20260505102038 | 11 | 0 | 0.0 | 0.0 | 0.00 | 0.00 | 0.00 | 70 | 1014.3 |
| 20260505101547 | 11 | 0 | 0.0 | 0.0 | 0.00 | 0.00 | 0.00 | 70 | 1014.3 |
| 20260505101040 | 11 | 0 | 0.0 | 0.0 | 0.00 | 0.00 | 0.00 | 69 | 1014.3 |
| 20260505100538 | 11 | 0 | 0.0 | 0.0 | 0.00 | 0.00 | 0.00 | 70 | 1014.2 |
| 20260505100052 | 11 | 0 | 0.0 | 0.0 | 0.00 | 0.00 | 0.00 | 70 | 1014.2 |
| 20260505095538 | 11 | 0 | 0.0 | 0.0 | 0.00 | 0.00 | 0.00 | 70 | 1014.5 |
| 20260505095037 | 11 | 0 | 0.0 | 0.0 | 0.00 | 0.00 | 0.00 | 70 | 1014.4 |
| 20260505094547 | 11 | 0 | 0.0 | 0.0 | 0.00 | 0.00 | 0.00 | 70 | 1014.4 |
| 20260505094038 | 12 | 0 | 0.0 | 0.0 | 0.00 | 0.00 | 0.00 | 70 | 1014.4 |
| 20260505093538 | 12 | 0 | 0.0 | 0.0 | 0.00 | 0.00 | 0.00 | 70 | 1014.6 |
| 20260505093053 | 12 | 0 | 0.0 | 1.6 | 0.00 | 0.00 | 0.00 | 70 | 1014.6 |
| 20260505092542 | 12 | 0 | 0.0 | 1.6 | 0.00 | 0.00 | 0.00 | 70 | 1014.5 |
| 20260505092038 | 12 | 0 | 0.0 | 0.0 | 0.00 | 0.00 | 0.00 | 69 | 1014.6 |
| 20260505091602 | 12 | 0 | 0.0 | 0.0 | 0.00 | 0.00 | 0.00 | 69 | 1014.6 |
| 20260505091039 | 12 | 0 | 0.0 | 1.6 | 0.00 | 0.00 | 0.00 | 68 | 1014.6 |
| 20260505090538 | 12 | 0 | 0.0 | 1.6 | 0.00 | 0.00 | 0.00 | 68 | 1014.6 |
| 20260505090050 | 12 | 0 | 0.0 | 1.6 | 0.00 | 0.00 | 0.00 | 68 | 1014.5 |
| 20260505085539 | 12 | 0 | 0.0 | 1.6 | 0.00 | 0.00 | 0.00 | 67 | 1014.4 |
| 20260505085041 | 12 | 0 | 0.0 | 0.0 | 0.00 | 0.00 | 0.00 | 67 | 1014.3 |
| 20260505084549 | 13 | 0 | 0.0 | 0.0 | 0.00 | 0.00 | 0.00 | 67 | 1014.2 |
| 20260505084038 | 13 | 0 | 0.0 | 1.6 | 0.00 | 0.00 | 0.00 | 66 | 1014.1 |
| 20260505083540 | 13 | 0 | 0.0 | 3.2 | 0.00 | 0.00 | 0.00 | 66 | 1014.0 |
| 20260505083049 | 13 | 0 | 0.0 | 3.2 | 0.00 | 0.00 | 0.00 | 66 | 1013.9 |
| 20260505082539 | 13 | 0 | 0.0 | 4.8 | 0.00 | 0.00 | 0.00 | 66 | 1013.7 |
| 20260505082039 | 13 | 0 | 0.0 | 4.8 | 0.00 | 0.00 | 0.00 | 66 | 1013.7 |
| 20260505081557 | 13 | 0 | 0.0 | 6.4 | 0.00 | 0.00 | 0.00 | 65 | 1013.7 |
| 20260505081039 | 13 | 0 | 0.0 | 6.4 | 0.00 | 0.00 | 0.00 | 65 | 1013.6 |
| 20260505080541 | 13 | 0 | 0.0 | 4.8 | 0.00 | 0.00 | 0.00 | 65 | 1013.5 |
| 20260505080054 | 13 | 0 | 0.0 | 4.8 | 0.00 | 0.00 | 0.00 | 64 | 1013.5 |
| 20260505075540 | 13 | 0 | 0.0 | 4.8 | 0.00 | 0.00 | 0.00 | 64 | 1013.4 |
| 20260505075038 | 13 | 0 | 0.0 | 4.8 | 0.00 | 0.00 | 0.00 | 64 | 1013.4 |
| 20260505074551 | 13 | 0 | 0.0 | 4.8 | 0.00 | 0.00 | 0.00 | 63 | 1013.5 |
| 20260505074038 | 14 | 0 | 0.0 | 3.2 | 0.00 | 0.00 | 0.00 | 63 | 1013.4 |
| 20260505073538 | 14 | 0 | 0.0 | 3.2 | 0.00 | 0.00 | 0.00 | 63 | 1013.6 |
| 20260505073053 | 14 | 0 | 0.0 | 3.2 | 0.00 | 0.00 | 0.00 | 63 | 1013.6 |
| 20260505072538 | 14 | 0 | 0.0 | 3.2 | 0.00 | 0.00 | 0.00 | 63 | 1013.5 |
| 20260505072040 | 14 | 0 | 0.0 | 3.2 | 0.00 | 0.00 | 0.00 | 63 | 1013.6 |
| 20260505071546 | 14 | 0 | 0.0 | 1.6 | 0.00 | 0.00 | 0.00 | 62 | 1013.6 |
| 20260505071038 | 14 | 0 | 0.0 | 6.4 | 0.00 | 0.00 | 0.00 | 62 | 1013.8 |
| 20260505070538 | 14 | 0 | 0.0 | 6.4 | 0.00 | 0.00 | 0.00 | 62 | 1013.7 |
| 20260505070054 | 15 | 0 | 0.0 | 6.4 | 0.00 | 0.00 | 0.00 | 62 | 1013.8 |
| 20260505065540 | 15 | 0 | 0.0 | 6.4 | 0.00 | 0.00 | 0.00 | 62 | 1013.6 |
| 20260505065038 | 15 | 0 | 0.0 | 4.8 | 0.00 | 0.00 | 0.00 | 62 | 1013.8 |
| 20260505064553 | 15 | 0 | 0.0 | 8.0 | 0.00 | 0.00 | 0.00 | 62 | 1013.7 |
| 20260505064037 | 15 | 0 | 0.0 | 16.1 | 0.00 | 0.00 | 0.00 | 62 | 1013.7 |
| 20260505063538 | 15 | 0 | 0.0 | 16.1 | 0.00 | 0.00 | 0.00 | 61 | 1013.7 |
| 20260505063108 | 15 | 0 | 0.0 | 11.3 | 0.00 | 0.00 | 0.00 | 62 | 1013.8 |
| 20260505062541 | 15 | 0 | 0.0 | 16.1 | 0.00 | 0.00 | 0.00 | 62 | 1013.6 |
| 20260505062038 | 15 | 231 | 0.0 | 16.1 | 0.00 | 0.00 | 0.00 | 62 | 1013.4 |
| 20260505061552 | 15 | 174 | 0.0 | 12.9 | 0.00 | 0.00 | 0.00 | 62 | 1013.7 |
| 20260505061042 | 15 | 0 | 0.0 | 11.3 | 0.00 | 0.00 | 0.00 | 61 | 1013.6 |
| 20260505060538 | 15 | 263 | 0.0 | 11.3 | 0.00 | 0.00 | 0.00 | 61 | 1013.7 |
| 20260505060049 | 15 | 226 | 0.0 | 11.3 | 0.00 | 0.00 | 0.00 | 61 | 1013.6 |
| 20260505055538 | 15 | 190 | 0.0 | 11.3 | 0.00 | 0.00 | 0.00 | 61 | 1013.5 |
| 20260505055039 | 15 | 188 | 1.6 | 11.3 | 0.00 | 0.00 | 0.00 | 61 | 1013.7 |
| 20260505054608 | 15 | 0 | 0.0 | 11.3 | 0.00 | 0.00 | 0.00 | 61 | 1013.6 |
| 20260505054038 | 15 | 201 | 1.6 | 11.3 | 0.00 | 0.00 | 0.00 | 61 | 1013.5 |
| 20260505053538 | 15 | 0 | 0.0 | 12.9 | 0.00 | 0.00 | 0.00 | 61 | 1013.6 |
| 20260505053058 | 15 | 0 | 1.6 | 12.9 | 0.00 | 0.00 | 0.00 | 61 | 1013.6 |
| 20260505052538 | 15 | 259 | 0.0 | 9.7 | 0.00 | 0.00 | 0.00 | 61 | 1013.6 |
| 20260505052038 | 15 | 0 | 0.0 | 9.7 | 0.00 | 0.00 | 0.00 | 61 | 1013.6 |
| 20260505051549 | 15 | 0 | 0.0 | 9.7 | 0.00 | 0.00 | 0.00 | 61 | 1013.7 |
| 20260505051039 | 15 | 254 | 0.0 | 9.7 | 0.00 | 0.00 | 0.00 | 60 | 1013.7 |
| 20260505050538 | 15 | 0 | 0.0 | 8.0 | 0.00 | 0.00 | 0.00 | 60 | 1013.6 |
| 20260505041556 | 16 | 0 | 0.0 | 6.4 | 0.00 | 0.00 | 0.00 | 59 | 1013.4 |
| 20260505041039 | 16 | 0 | 0.0 | 6.4 | 0.00 | 0.00 | 0.00 | 59 | 1013.3 |
| 20260505040539 | 16 | 229 | 0.0 | 11.3 | 0.00 | 0.00 | 0.00 | 59 | 1013.4 |
| 20260505040054 | 16 | 0 | 0.0 | 11.3 | 0.00 | 0.00 | 0.00 | 59 | 1013.3 |
| 20260505035539 | 16 | 0 | 0.0 | 8.0 | 0.00 | 0.00 | 0.00 | 59 | 1013.4 |
| 20260505035038 | 16 | 267 | 0.0 | 11.3 | 0.00 | 0.00 | 0.00 | 59 | 1013.5 |
| 20260505034545 | 16 | 0 | 0.0 | 11.3 | 0.00 | 0.00 | 0.00 | 59 | 1013.5 |
| 20260505034042 | 16 | 176 | 0.0 | 6.4 | 0.00 | 0.00 | 0.00 | 59 | 1013.6 |
| 20260505033539 | 16 | 0 | 0.0 | 3.2 | 0.00 | 0.00 | 0.00 | 58 | 1013.3 |
| 20260505033049 | 16 | 0 | 0.0 | 6.4 | 0.00 | 0.00 | 0.00 | 58 | 1013.3 |
| 20260505032537 | 16 | 0 | 0.0 | 6.4 | 0.00 | 0.00 | 0.00 | 58 | 1013.4 |
| 20260505032038 | 16 | 240 | 0.0 | 6.4 | 0.00 | 0.00 | 0.00 | 57 | 1013.5 |
| 20260505031600 | 16 | 0 | 0.0 | 6.4 | 0.00 | 0.00 | 0.00 | 57 | 1013.6 |
| 20260505031038 | 17 | 0 | 0.0 | 9.7 | 0.00 | 0.00 | 0.00 | 56 | 1013.5 |
| 20260505030539 | 17 | 0 | 1.6 | 9.7 | 0.00 | 0.00 | 0.00 | 56 | 1013.5 |
| 20260505030046 | 17 | 234 | 0.0 | 8.0 | 0.00 | 0.00 | 0.00 | 55 | 1013.6 |
| 20260505025539 | 17 | 0 | 0.0 | 8.0 | 0.00 | 0.00 | 0.00 | 55 | 1013.6 |
| 20260505025041 | 17 | 0 | 0.0 | 8.0 | 0.00 | 0.00 | 0.00 | 55 | 1013.7 |
| 20260505024602 | 17 | 0 | 0.0 | 11.3 | 0.00 | 0.00 | 0.00 | 55 | 1013.6 |
| 20260505024038 | 17 | 184 | 1.6 | 11.3 | 0.00 | 0.00 | 0.00 | 55 | 1013.7 |
| 20260505023540 | 17 | 238 | 0.0 | 8.0 | 0.00 | 0.00 | 0.00 | 54 | 1013.9 |
| 20260505023048 | 17 | 0 | 0.0 | 12.9 | 0.00 | 0.00 | 0.00 | 54 | 1013.8 |
| 20260505022538 | 17 | 0 | 0.0 | 12.9 | 0.00 | 0.00 | 0.00 | 54 | 1013.7 |
| 20260505022037 | 17 | 0 | 1.6 | 12.9 | 0.00 | 0.00 | 0.00 | 54 | 1013.7 |
| 20260505021559 | 17 | 0 | 0.0 | 8.0 | 0.00 | 0.00 | 0.00 | 54 | 1013.7 |
| 20260505021038 | 17 | 194 | 0.0 | 8.0 | 0.00 | 0.00 | 0.00 | 54 | 1013.7 |
| 20260505020538 | 17 | 0 | 0.0 | 8.0 | 0.00 | 0.00 | 0.00 | 54 | 1013.6 |
| 20260505020045 | 17 | 0 | 0.0 | 6.4 | 0.00 | 0.00 | 0.00 | 54 | 1013.6 |
| 20260505015541 | 18 | 0 | 0.0 | 9.7 | 0.00 | 0.00 | 0.00 | 54 | 1013.5 |
| 20260505015041 | 18 | 243 | 0.0 | 9.7 | 0.00 | 0.00 | 0.00 | 54 | 1013.5 |
| 20260505014603 | 18 | 0 | 0.0 | 9.7 | 0.00 | 0.00 | 0.00 | 55 | 1013.4 |
| 20260505014037 | 18 | 0 | 0.0 | 14.5 | 0.00 | 0.00 | 0.00 | 55 | 1013.4 |
| 20260505013538 | 18 | 0 | 1.6 | 16.1 | 0.00 | 0.00 | 0.00 | 54 | 1013.4 |
| 20260505013103 | 18 | 223 | 0.0 | 16.1 | 0.00 | 0.00 | 0.00 | 54 | 1013.4 |
| 20260505012540 | 18 | 0 | 0.0 | 6.4 | 0.00 | 0.00 | 0.00 | 54 | 1013.4 |
| 20260505012039 | 18 | 242 | 0.0 | 19.3 | 0.00 | 0.00 | 0.00 | 54 | 1013.2 |
| 20260505011602 | 18 | 0 | 0.0 | 19.3 | 0.00 | 0.00 | 0.00 | 53 | 1013.3 |
| 20260505011038 | 18 | 0 | 0.0 | 6.4 | 0.00 | 0.00 | 0.00 | 53 | 1013.1 |
| 20260505010538 | 18 | 0 | 0.0 | 6.4 | 0.00 | 0.00 | 0.00 | 52 | 1013.0 |
| 20260505010049 | 18 | 233 | 0.0 | 8.0 | 0.00 | 0.00 | 0.00 | 52 | 1013.0 |
| 20260505010005 | 22 | 317 | 1.6 | 8.0 | 0.00 | 0.00 | 0.00 | 43 | 1016.6 |
| 20260505005538 | 19 | 224 | 0.0 | 12.9 | 0.00 | 0.00 | 0.00 | 52 | 1012.9 |
| 20260505005038 | 19 | 183 | 0.0 | 12.9 | 0.00 | 0.00 | 0.00 | 51 | 1012.9 |
| 20260505004548 | 19 | 233 | 0.0 | 12.9 | 0.00 | 0.00 | 0.00 | 51 | 1012.7 |
| 20260505004505 | 22 | 317 | 1.6 | 8.0 | 0.00 | 0.00 | 0.00 | 43 | 1016.6 |
| 20260505004039 | 20 | 218 | 0.0 | 6.4 | 0.00 | 0.00 | 0.00 | 49 | 1012.8 |
| 20260505004008 | 22 | 317 | 1.6 | 8.0 | 0.00 | 0.00 | 0.00 | 43 | 1016.6 |
| 20260505003539 | 20 | 167 | 0.0 | 8.0 | 0.00 | 0.00 | 0.00 | 49 | 1012.9 |
| 20260505003048 | 20 | 184 | 0.0 | 14.5 | 0.00 | 0.00 | 0.00 | 48 | 1012.8 |
| 20260505002539 | 20 | 0 | 0.0 | 14.5 | 0.00 | 0.00 | 0.00 | 47 | 1012.8 |
| 20260505002039 | 20 | 210 | 0.0 | 8.0 | 0.00 | 0.00 | 0.00 | 47 | 1012.7 |
| 20260505001545 | 20 | 0 | 0.0 | 11.3 | 0.00 | 0.00 | 0.00 | 47 | 1012.7 |
| 20260505001037 | 20 | 0 | 0.0 | 11.3 | 0.00 | 0.00 | 0.00 | 47 | 1012.7 |
| 20260505000538 | 21 | 0 | 0.0 | 4.8 | 0.00 | 0.00 | 0.00 | 47 | 1012.7 |
| 20260505000054 | 21 | 0 | 1.6 | 4.8 | 0.00 | 0.00 | 0.00 | 46 | 1012.7 |
| 20260504235539 | 21 | 0 | 0.0 | 4.8 | 0.00 | 0.00 | 0.00 | 47 | 1012.7 |
| 20260504235039 | 21 | 213 | 0.0 | 6.4 | 0.00 | 0.00 | 0.00 | 47 | 1012.7 |
| 20260504234548 | 21 | 0 | 0.0 | 6.4 | 0.00 | 0.00 | 0.00 | 46 | 1012.7 |
| 20260504234039 | 21 | 0 | 0.0 | 6.4 | 0.00 | 0.00 | 0.00 | 45 | 1012.7 |
| 20260504233538 | 21 | 0 | 0.0 | 6.4 | 0.00 | 0.00 | 0.00 | 45 | 1012.6 |
| 20260504233058 | 21 | 0 | 0.0 | 8.0 | 0.00 | 0.00 | 0.00 | 45 | 1012.6 |
| 20260504232539 | 22 | 0 | 0.0 | 11.3 | 0.00 | 0.00 | 0.00 | 45 | 1012.6 |
| 20260504232040 | 22 | 0 | 1.6 | 11.3 | 0.00 | 0.00 | 0.00 | 45 | 1012.6 |
| 20260504231548 | 22 | 0 | 0.0 | 6.4 | 0.00 | 0.00 | 0.00 | 45 | 1012.7 |
| 20260504231039 | 22 | 0 | 0.0 | 4.8 | 0.00 | 0.00 | 0.00 | 44 | 1012.7 |
| 20260504230538 | 22 | 0 | 0.0 | 3.2 | 0.00 | 0.00 | 0.00 | 45 | 1012.5 |
| 20260504230046 | 22 | 0 | 0.0 | 4.8 | 0.00 | 0.00 | 0.00 | 45 | 1012.5 |
| 20260504225538 | 22 | 0 | 0.0 | 4.8 | 0.00 | 0.00 | 0.00 | 44 | 1012.6 |
| 20260504225038 | 22 | 0 | 0.0 | 4.8 | 0.00 | 0.00 | 0.00 | 43 | 1012.5 |
| 20260504224543 | 22 | 274 | 0.0 | 9.7 | 0.00 | 0.00 | 0.00 | 44 | 1012.6 |
| 20260504224038 | 22 | 0 | 0.0 | 12.9 | 0.00 | 0.00 | 0.00 | 43 | 1012.7 |
| 20260504223538 | 22 | 0 | 1.6 | 12.9 | 0.00 | 0.00 | 0.00 | 43 | 1012.7 |
| 20260504223100 | 22 | 0 | 1.6 | 12.9 | 0.00 | 0.00 | 0.00 | 43 | 1012.7 |
| 20260504222538 | 22 | 156 | 1.6 | 19.3 | 0.00 | 0.00 | 0.00 | 42 | 1012.9 |
| 20260504222038 | 23 | 163 | 1.6 | 19.3 | 0.00 | 0.00 | 0.00 | 42 | 1012.9 |
| 20260504221539 | 23 | 186 | 0.0 | 12.9 | 0.00 | 0.00 | 0.00 | 41 | 1012.7 |
| 20260504221042 | 23 | 157 | 1.6 | 12.9 | 0.00 | 0.00 | 0.00 | 39 | 1012.8 |
| 20260504220538 | 23 | 199 | 3.2 | 17.7 | 0.00 | 0.00 | 0.00 | 39 | 1012.8 |
| 20260504220050 | 24 | 205 | 1.6 | 17.7 | 0.00 | 0.00 | 0.00 | 38 | 1012.8 |
| 20260504215538 | 25 | 182 | 1.6 | 12.9 | 0.00 | 0.00 | 0.00 | 37 | 1012.8 |
| 20260504215038 | 25 | 0 | 0.0 | 16.1 | 0.00 | 0.00 | 0.00 | 37 | 1012.9 |
| 20260504214546 | 25 | 355 | 0.0 | 16.1 | 0.00 | 0.00 | 0.00 | 38 | 1012.8 |
| 20260504214041 | 25 | 219 | 1.6 | 11.3 | 0.00 | 0.00 | 0.00 | 38 | 1012.8 |
| 20260504213538 | 25 | 0 | 1.6 | 19.3 | 0.00 | 0.00 | 0.00 | 38 | 1012.7 |
| 20260504213053 | 25 | 205 | 3.2 | 19.3 | 0.00 | 0.00 | 0.00 | 38 | 1012.7 |
| 20260504212538 | 25 | 207 | 1.6 | 16.1 | 0.00 | 0.00 | 0.00 | 38 | 1012.9 |
| 20260504212038 | 25 | 259 | 1.6 | 11.3 | 0.00 | 0.00 | 0.00 | 37 | 1012.8 |
| 20260504211549 | 26 | 163 | 1.6 | 14.5 | 0.00 | 0.00 | 0.00 | 37 | 1012.9 |
| 20260504211038 | 26 | 145 | 0.0 | 14.5 | 0.00 | 0.00 | 0.00 | 36 | 1012.8 |
| 20260504210538 | 26 | 338 | 0.0 | 14.5 | 0.00 | 0.00 | 0.00 | 39 | 1012.9 |
| 20260504210051 | 26 | 0 | 1.6 | 14.5 | 0.00 | 0.00 | 0.00 | 38 | 1013.0 |
| 20260504205538 | 26 | 194 | 1.6 | 14.5 | 0.00 | 0.00 | 0.00 | 39 | 1013.0 |
| 20260504205042 | 26 | 199 | 1.6 | 14.5 | 0.00 | 0.00 | 0.00 | 38 | 1013.0 |
| 20260504204550 | 26 | 0 | 3.2 | 14.5 | 0.00 | 0.00 | 0.00 | 40 | 1013.2 |
| 20260504204038 | 26 | 243 | 1.6 | 12.9 | 0.00 | 0.00 | 0.00 | 38 | 1013.2 |
| 20260504203538 | 26 | 267 | 1.6 | 12.9 | 0.00 | 0.00 | 0.00 | 37 | 1013.3 |
| 20260504203104 | 26 | 253 | 0.0 | 12.9 | 0.00 | 0.00 | 0.00 | 36 | 1013.2 |
| 20260504202538 | 26 | 158 | 3.2 | 14.5 | 0.00 | 0.00 | 0.00 | 36 | 1013.4 |
| 20260504202043 | 27 | 254 | 1.6 | 14.5 | 0.00 | 0.00 | 0.00 | 38 | 1013.3 |
| 20260504201554 | 27 | 304 | 0.0 | 9.7 | 0.00 | 0.00 | 0.00 | 37 | 1013.6 |
| 20260504201039 | 27 | 114 | 1.6 | 9.7 | 0.00 | 0.00 | 0.00 | 36 | 1013.7 |